Regional Weather Roundup
Issued by NWS

Home | Current Version | Previous Version | Text Only | Print | Product List | Glossary On
Versions: 1 2 3 4 5 6 7 8 9 10 11 12 13 14 15 16 17 18 19 20 21 22 23 24 25 26 27 28 29 30 31 32 33 34 35 36 37 38 39 40 41 42 43 44 45 46 47 48 49 50
000
ASUS43 KTOP 291108
RWRKS

WEATHER ROUNDUP FOR KANSAS
NATIONAL WEATHER SERVICE GOODLAND KS
600 AM CDT WED MAR 29 2017

NOTE:  "FAIR" INDICATES FEW OR NO CLOUDS BELOW 12,000 FEET WITH NO
SIGNIFICANT WEATHER AND/OR OBSTRUCTIONS TO VISIBILITY.

KSZ001>006-013>018-027>032-041>047-291200-
NORTHWEST KANSAS

CITY           SKY/WX    TMP DP  RH WIND       PRES   REMARKS
GOODLAND       CLOUDY    39  38  96 N17G24    29.97R WCI  30
HAYS             N/A     45  44  97 N18       29.87S FOG
HILL CITY      LGT RAIN  43  42  97 N22G30    29.92F FOG
RUSSELL        LGT RAIN  45  45 100 N16       29.84F FOG
$$

KSZ061>065-074>080-084>089-291200-
SOUTHWEST KANSAS

CITY           SKY/WX    TMP DP  RH WIND       PRES   REMARKS
DODGE CITY     LGT RAIN  43  42  97 N23G31    29.81S FOG
ELKHART          N/A     39  32  76 N17         N/A  WCI  30
GARDEN CITY    LGT RAIN  42  40  92 NE24G33   29.84S FOG
GREAT BEND     LGT RAIN  46  45  96 N21       29.81F
LIBERAL        CLOUDY    43  37  81 N23       29.80F
PRATT          DRIZZLE   45  45  98 N18G24    29.75F
$$

KSZ066>073-081>083-090>101-291200-
SOUTHEAST KANSAS

CITY           SKY/WX    TMP DP  RH WIND       PRES   REMARKS
CHANUTE        CLOUDY    55  53  93 E13       29.73F
COFFEYVILLE    RAIN      59  57  93 E12       29.68F
MEDICINE LODGE   N/A     50  47  89 N12       29.72F
NEWTON         LGT RAIN  49  48  97 NE17      29.73F
PARSONS        CLOUDY    58  56  93 VRB3      29.72F
WICHITA INTL   RAIN      51  51 100 N14       29.68F
WICHITA JABRA  RAIN      50  49  96 NE16G23   29.69F
WICHITA MCCONL RAIN      50  48  93 NE16      29.67F
WINFIELD       RAIN      53  52  96 N6        29.67F
$$

KSZ007>012-019>026-033>040-048>060-102>105-291200-
NORTHEAST KANSAS

CITY           SKY/WX    TMP DP  RH WIND       PRES   REMARKS
CONCORDIA      LGT RAIN  47  47 100 NE14G24   29.88R
EMPORIA        RAIN      50  50 100 E18       29.77F FOG
LAWRENCE       CLOUDY    51  50  96 NE20G30   29.86F
MANHATTAN      RAIN      50  49  96 NE24G31   29.83R
MARYSVILLE     LGT RAIN  46  45  93 E16G22    29.90R
OLATHE IND     CLOUDY    50  49  96 NE14G24   29.87F
OLATHE EXE     LGT RAIN  49  49 100 E14       29.87F
SALINA         LGT RAIN  52  48  86 E16G26    29.82R
TOPEKA BILLARD LGT RAIN  51  50  96 NE16G25   29.84F
TOPEKA FORBES  LGT RAIN  52  49  89 E15       29.83F
$$



USA.gov is the U.S. government's official web portal to all federal, state and local government web resources and services.